BCS4261 LIMC-EDDK

Flight info

Callsign BCS4261
Flight time 1h 10m
Altitude 34000
Route AOSTA DCT ORSUD DCT MOLUS DCT GILIR DCT PENDU DCT IXILU DCT GIVOR DCT SORAL DCT IBERA N853 ARCKY T853 IBESA T860 ERUKI ERUKI1B
Aircraft B738/M-SDE2E3FGHIRWXY/LB1

Departure

Time 2026-05-05 14:36
Airport Milan Malpensa International Airport (LIMC)

Arrival

Time 2026-05-05 15:46
Airport Cologne Bonn Airport (EDDK)
Time Latitude Longitude Altitude Speed Heading
2026-05-05 13:59 45.64549 8.72529 718 ft 0 kts 278°
2026-05-05 14:23 45.64546 8.72563 716 ft 4 kts 269°
2026-05-05 14:23 45.64550 8.72601 718 ft 4 kts 248°
2026-05-05 14:24 45.64563 8.72627 717 ft 4 kts 192°
2026-05-05 14:24 45.64574 8.72628 718 ft 1 kts 168°
2026-05-05 14:24 45.64575 8.72628 718 ft 0 kts 168°
2026-05-05 14:27 45.64573 8.72628 715 ft 3 kts 168°
2026-05-05 14:27 45.64527 8.72641 716 ft 8 kts 173°
2026-05-05 14:27 45.64479 8.72618 718 ft 7 kts 230°
2026-05-05 14:28 45.64467 8.72547 716 ft 7 kts 260°
2026-05-05 14:28 45.64457 8.72478 716 ft 7 kts 254°
2026-05-05 14:28 45.64419 8.72434 717 ft 10 kts 188°
2026-05-05 14:28 45.64339 8.72452 715 ft 12 kts 167°
2026-05-05 14:29 45.64258 8.72474 716 ft 12 kts 169°
2026-05-05 14:29 45.64162 8.72501 718 ft 19 kts 169°
2026-05-05 14:29 45.64026 8.72538 718 ft 20 kts 169°
2026-05-05 14:29 45.63893 8.72575 715 ft 19 kts 169°
2026-05-05 14:30 45.63765 8.72612 715 ft 18 kts 168°
2026-05-05 14:30 45.63641 8.72647 716 ft 18 kts 169°
2026-05-05 14:30 45.63521 8.72680 717 ft 17 kts 169°
2026-05-05 14:30 45.63405 8.72712 716 ft 17 kts 169°
2026-05-05 14:31 45.63294 8.72743 716 ft 16 kts 168°
2026-05-05 14:31 45.63187 8.72774 715 ft 15 kts 167°
2026-05-05 14:31 45.63084 8.72802 718 ft 15 kts 171°
2026-05-05 14:31 45.62986 8.72827 718 ft 14 kts 168°
2026-05-05 14:32 45.62883 8.72857 719 ft 20 kts 169°
2026-05-05 14:32 45.62728 8.72900 716 ft 23 kts 169°
2026-05-05 14:32 45.62574 8.72942 715 ft 22 kts 169°
2026-05-05 14:32 45.62426 8.72984 716 ft 22 kts 169°
2026-05-05 14:33 45.62281 8.73025 718 ft 21 kts 169°
2026-05-05 14:33 45.62140 8.73065 719 ft 20 kts 168°
2026-05-05 14:33 45.62002 8.73102 716 ft 20 kts 169°
2026-05-05 14:33 45.61870 8.73138 717 ft 19 kts 169°
2026-05-05 14:34 45.61749 8.73202 716 ft 18 kts 133°
2026-05-05 14:34 45.61677 8.73350 720 ft 18 kts 125°
2026-05-05 14:34 45.61602 8.73513 718 ft 20 kts 118°
2026-05-05 14:34 45.61610 8.73702 717 ft 20 kts 50°
2026-05-05 14:35 45.61737 8.73706 716 ft 20 kts 348°
2026-05-05 14:35 45.62025 8.73627 716 ft 76 kts 349°
2026-05-05 14:35 45.62763 8.73423 718 ft 138 kts 349°
2026-05-05 14:35 45.63835 8.73091 965 ft 167 kts 348°
2026-05-05 14:36 45.64966 8.72785 1756 ft 168 kts 353°
2026-05-05 14:36 45.66155 8.72657 2462 ft 172 kts
2026-05-05 14:36 45.67438 8.72638 2843 ft 201 kts
2026-05-05 14:36 45.68925 8.72628 3099 ft 227 kts
2026-05-05 14:37 45.70558 8.72615 3614 ft 238 kts
2026-05-05 14:37 45.72199 8.72251 4388 ft 242 kts 334°
2026-05-05 14:37 45.73455 8.70681 5135 ft 245 kts 300°
2026-05-05 14:37 45.73947 8.68381 5872 ft 244 kts 267°
2026-05-05 14:38 45.73585 8.66043 6620 ft 242 kts 244°
2026-05-05 14:38 45.72859 8.63886 7444 ft 240 kts 242°
2026-05-05 14:38 45.72090 8.61762 8245 ft 240 kts 242°
2026-05-05 14:38 45.71286 8.59645 8952 ft 247 kts 238°
2026-05-05 14:39 45.70340 8.57496 9232 ft 270 kts 237°
2026-05-05 14:39 45.69294 8.55166 9888 ft 278 kts 237°
2026-05-05 14:39 45.68244 8.52806 10436 ft 289 kts 237°
2026-05-05 14:39 45.67117 8.50278 10635 ft 312 kts 237°
2026-05-05 14:40 45.65925 8.47608 11144 ft 323 kts 237°
2026-05-05 14:40 45.64721 8.44907 11975 ft 322 kts 237°
2026-05-05 14:40 45.63518 8.42208 12779 ft 323 kts 237°
2026-05-05 14:40 45.62279 8.39566 13550 ft 326 kts 232°
2026-05-05 14:41 45.60814 8.37027 14294 ft 328 kts 229°
2026-05-05 14:41 45.59372 8.34548 15053 ft 330 kts 235°
2026-05-05 14:41 45.58484 8.31484 15828 ft 335 kts 257°
2026-05-05 14:41 45.58372 8.28136 16600 ft 343 kts 273°
2026-05-05 14:42 45.58945 8.24827 17287 ft 352 kts 283°
2026-05-05 14:42 45.59728 8.21493 17971 ft 357 kts 284°
2026-05-05 14:42 45.60548 8.18112 18552 ft 363 kts 284°
2026-05-05 14:42 45.61370 8.14705 19186 ft 364 kts 283°
2026-05-05 14:43 45.62186 8.11274 19880 ft 365 kts 283°
2026-05-05 14:43 45.62992 8.07836 20541 ft 365 kts 283°
2026-05-05 14:43 45.63794 8.04378 21114 ft 369 kts 283°
2026-05-05 14:43 45.64601 8.00870 21662 ft 372 kts 283°
2026-05-05 14:44 45.65412 7.97357 22245 ft 373 kts 283°
2026-05-05 14:44 45.65962 7.94969 22607 ft 375 kts 283°
2026-05-05 14:44 45.66775 7.91408 23118 ft 378 kts 283°
2026-05-05 14:44 45.67593 7.87829 23687 ft 380 kts 283°
2026-05-05 14:45 45.68404 7.84278 24175 ft 382 kts 282°
2026-05-05 14:45 45.69228 7.80669 24728 ft 381 kts 282°
2026-05-05 14:45 45.70042 7.77071 25258 ft 380 kts 281°
2026-05-05 14:45 45.70861 7.73454 25694 ft 383 kts 282°
2026-05-05 14:46 45.71691 7.69804 26019 ft 390 kts 282°
2026-05-05 14:46 45.72533 7.66084 26423 ft 394 kts 283°
2026-05-05 14:46 45.73377 7.62356 26929 ft 394 kts 282°
2026-05-05 14:46 45.74218 7.58632 27459 ft 393 kts 282°
2026-05-05 14:47 45.75056 7.54907 27924 ft 394 kts 281°
2026-05-05 14:47 45.75898 7.51159 28314 ft 397 kts 281°
2026-05-05 14:47 45.76744 7.47387 28716 ft 399 kts 281°
2026-05-05 14:47 45.77593 7.43594 29137 ft 401 kts 281°
2026-05-05 14:48 45.78658 7.39886 29549 ft 413 kts 295°
2026-05-05 14:48 45.80536 7.36674 30034 ft 429 kts 311°
2026-05-05 14:48 45.83005 7.34204 30541 ft 441 kts 324°
2026-05-05 14:48 45.85957 7.32724 30860 ft 459 kts 341°
2026-05-05 14:49 45.89109 7.31850 31214 ft 463 kts 342°
2026-05-05 14:49 45.92287 7.31077 31597 ft 464 kts 343°
2026-05-05 14:49 45.95476 7.30333 31935 ft 465 kts 343°
2026-05-05 14:49 45.98668 7.29580 32226 ft 464 kts 343°
2026-05-05 14:50 46.01853 7.28809 32550 ft 464 kts 342°
2026-05-05 14:50 46.05038 7.28011 32743 ft 466 kts 343°
2026-05-05 14:50 46.08219 7.27201 33255 ft 463 kts 342°
2026-05-05 14:50 46.11388 7.26387 33668 ft 462 kts 342°
2026-05-05 14:51 46.14552 7.25565 33916 ft 464 kts 343°
2026-05-05 14:51 46.17751 7.24726 33891 ft 469 kts 343°
2026-05-05 14:51 46.24150 7.23055 33898 ft 464 kts 343°
2026-05-05 14:52 46.30448 7.21416 33930 ft 459 kts 343°
2026-05-05 14:52 46.36743 7.19768 33896 ft 460 kts 344°
2026-05-05 14:53 46.43038 7.18110 33895 ft 460 kts 344°
2026-05-05 14:53 46.49329 7.16451 33889 ft 460 kts 344°
2026-05-05 14:54 46.55630 7.14789 33875 ft 460 kts 344°
2026-05-05 14:54 46.61913 7.13133 33894 ft 458 kts 344°
2026-05-05 14:55 46.68182 7.11471 33891 ft 458 kts 344°
2026-05-05 14:55 46.74458 7.09801 33881 ft 458 kts 344°
2026-05-05 14:56 46.80684 7.08142 33901 ft 458 kts 345°
2026-05-05 14:56 46.86967 7.06465 33871 ft 460 kts 345°
2026-05-05 14:57 46.93253 7.04785 33879 ft 458 kts 345°
2026-05-05 14:57 46.99515 7.03107 33886 ft 457 kts 346°
2026-05-05 14:58 47.05745 7.01432 33885 ft 456 kts 346°
2026-05-05 14:58 47.11981 6.99752 33892 ft 456 kts 346°
2026-05-05 14:59 47.18208 6.98069 33878 ft 455 kts 346°
2026-05-05 14:59 47.24434 6.96384 33865 ft 454 kts 346°
2026-05-05 15:00 47.29594 6.94985 33867 ft 454 kts 346°
2026-05-05 15:00 47.36862 6.93007 33853 ft 455 kts 346°
2026-05-05 15:01 47.43086 6.91309 33861 ft 455 kts 347°
2026-05-05 15:01 47.49322 6.89605 33856 ft 456 kts 347°
2026-05-05 15:02 47.55546 6.87900 33860 ft 454 kts 347°
2026-05-05 15:02 47.61758 6.86194 33878 ft 454 kts 348°
2026-05-05 15:03 47.67999 6.84475 33870 ft 457 kts 348°
2026-05-05 15:03 47.74254 6.82749 33850 ft 456 kts 348°
2026-05-05 15:04 47.80476 6.81029 33850 ft 454 kts 348°
2026-05-05 15:04 47.86672 6.79310 33836 ft 451 kts 348°
2026-05-05 15:05 47.95908 6.76740 33852 ft 450 kts 349°
2026-05-05 15:06 48.02056 6.75025 33845 ft 450 kts 349°
2026-05-05 15:06 48.08205 6.73305 33844 ft 450 kts 349°
2026-05-05 15:07 48.14318 6.71591 33838 ft 450 kts 349°
2026-05-05 15:07 48.20521 6.69848 33834 ft 451 kts 349°
2026-05-05 15:08 48.26651 6.68121 33835 ft 452 kts 350°
2026-05-05 15:08 48.32837 6.66373 33824 ft 453 kts 350°
2026-05-05 15:09 48.39022 6.64622 33832 ft 453 kts 350°
2026-05-05 15:09 48.45221 6.62862 33850 ft 455 kts 350°
2026-05-05 15:10 48.51447 6.61090 33817 ft 457 kts 350°
2026-05-05 15:10 48.57680 6.59313 33828 ft 455 kts 350°
2026-05-05 15:11 48.63893 6.57536 33831 ft 454 kts 350°
2026-05-05 15:11 48.70095 6.55758 33830 ft 452 kts 350°
2026-05-05 15:12 48.76272 6.53982 33846 ft 451 kts 350°
2026-05-05 15:12 48.82428 6.52208 33832 ft 450 kts 350°
2026-05-05 15:13 48.88568 6.50435 33833 ft 449 kts 350°
2026-05-05 15:13 48.94703 6.48659 33843 ft 449 kts 351°
2026-05-05 15:14 49.00855 6.46872 33830 ft 450 kts 350°
2026-05-05 15:14 49.07003 6.45083 33836 ft 450 kts 350°
2026-05-05 15:15 49.13109 6.43210 33825 ft 452 kts 347°
2026-05-05 15:15 49.19191 6.40735 33836 ft 453 kts 345°
2026-05-05 15:16 49.25271 6.38127 33850 ft 455 kts 345°
2026-05-05 15:16 49.31416 6.35542 33841 ft 461 kts 346°
2026-05-05 15:17 49.37625 6.32977 33813 ft 462 kts 346°
2026-05-05 15:17 49.43809 6.30414 33826 ft 460 kts 346°
2026-05-05 15:18 49.49974 6.27846 33825 ft 458 kts 346°
2026-05-05 15:18 49.56120 6.25314 33834 ft 456 kts 346°
2026-05-05 15:19 49.62243 6.22819 33820 ft 455 kts 346°
2026-05-05 15:19 49.68354 6.20318 33828 ft 454 kts 346°
2026-05-05 15:20 49.74446 6.17813 33453 ft 451 kts 346°
2026-05-05 15:20 49.77456 6.16572 33147 ft 444 kts 346°
2026-05-05 15:20 49.80427 6.15346 32781 ft 440 kts 346°
2026-05-05 15:20 49.83374 6.14129 32376 ft 438 kts 345°
2026-05-05 15:21 49.86339 6.13108 31988 ft 435 kts 353°
2026-05-05 15:21 49.89334 6.12828 31660 ft 429 kts
2026-05-05 15:21 49.92317 6.12864 31284 ft 427 kts
2026-05-05 15:21 49.95282 6.12936 30910 ft 425 kts
2026-05-05 15:22 49.98237 6.13002 30536 ft 423 kts
2026-05-05 15:22 50.01171 6.13048 30163 ft 421 kts
2026-05-05 15:22 50.04086 6.13078 29768 ft 417 kts
2026-05-05 15:22 50.06974 6.13097 29363 ft 413 kts
2026-05-05 15:23 50.09826 6.13110 28992 ft 408 kts
2026-05-05 15:23 50.12647 6.13122 28614 ft 403 kts
2026-05-05 15:23 50.15440 6.13134 28216 ft 400 kts
2026-05-05 15:23 50.18209 6.13146 27875 ft 396 kts
2026-05-05 15:24 50.20959 6.13158 27488 ft 395 kts
2026-05-05 15:24 50.23700 6.13171 27104 ft 393 kts
2026-05-05 15:24 50.26432 6.13192 26721 ft 392 kts
2026-05-05 15:24 50.29084 6.13716 26323 ft 388 kts 15°
2026-05-05 15:25 50.31647 6.15102 25953 ft 383 kts 26°
2026-05-05 15:25 50.33942 6.17170 25569 ft 379 kts 35°
2026-05-05 15:25 50.36125 6.19458 25196 ft 378 kts 36°
2026-05-05 15:25 50.38272 6.21737 24820 ft 376 kts 36°
2026-05-05 15:26 50.40438 6.24018 24454 ft 375 kts 35°
2026-05-05 15:26 50.42608 6.26274 24081 ft 373 kts 35°
2026-05-05 15:26 50.44794 6.28535 23729 ft 371 kts 35°
2026-05-05 15:26 50.46920 6.30748 23337 ft 371 kts 37°
2026-05-05 15:27 50.48822 6.33425 22886 ft 366 kts 52°
2026-05-05 15:27 50.50308 6.36623 22505 ft 360 kts 63°
2026-05-05 15:27 50.51369 6.40147 22132 ft 356 kts 70°
2026-05-05 15:27 50.52319 6.43722 21783 ft 353 kts 70°
2026-05-05 15:28 50.53257 6.47268 21405 ft 350 kts 70°
2026-05-05 15:28 50.54198 6.50789 21047 ft 348 kts 70°
2026-05-05 15:28 50.55139 6.54284 20711 ft 346 kts 70°
2026-05-05 15:28 50.56078 6.57759 20366 ft 345 kts 70°
2026-05-05 15:29 50.57013 6.61222 20016 ft 345 kts 69°
2026-05-05 15:29 50.57948 6.64688 19666 ft 344 kts 69°
2026-05-05 15:29 50.58880 6.68146 19321 ft 343 kts 69°
2026-05-05 15:29 50.59810 6.71606 18965 ft 342 kts 69°
2026-05-05 15:30 50.60839 6.74961 18611 ft 342 kts 57°
2026-05-05 15:30 50.62504 6.77636 18323 ft 344 kts 40°
2026-05-05 15:30 50.64382 6.79997 17926 ft 346 kts 39°
2026-05-05 15:30 50.66278 6.82337 17535 ft 347 kts 39°
2026-05-05 15:31 50.68171 6.84694 17176 ft 346 kts 39°
2026-05-05 15:31 50.70046 6.87064 16820 ft 345 kts 40°
2026-05-05 15:31 50.71908 6.89438 16467 ft 343 kts 40°
2026-05-05 15:31 50.73746 6.91823 16112 ft 341 kts 43°
2026-05-05 15:32 50.75402 6.94473 15724 ft 335 kts 49°
2026-05-05 15:32 50.76423 6.96268 15480 ft 328 kts 51°
2026-05-05 15:32 50.77505 6.99308 15303 ft 311 kts 77°
2026-05-05 15:32 50.77711 7.02604 15190 ft 296 kts 98°
2026-05-05 15:33 50.77249 7.05697 15066 ft 284 kts 113°
2026-05-05 15:33 50.76318 7.08366 14932 ft 273 kts 131°
2026-05-05 15:33 50.75030 7.10484 14836 ft 263 kts 139°
2026-05-05 15:33 50.73701 7.12402 14711 ft 255 kts 140°
2026-05-05 15:34 50.72380 7.14255 14455 ft 253 kts 140°
2026-05-05 15:34 50.71072 7.16110 14259 ft 251 kts 140°
2026-05-05 15:34 50.69768 7.17983 14037 ft 257 kts 139°
2026-05-05 15:34 50.68409 7.19918 13796 ft 267 kts 140°
2026-05-05 15:35 50.67020 7.21988 13447 ft 280 kts 139°
2026-05-05 15:35 50.65544 7.24099 13058 ft 292 kts 137°
2026-05-05 15:35 50.63604 7.27014 12648 ft 289 kts 140°
2026-05-05 15:35 50.62570 7.28371 12456 ft 282 kts 142°
2026-05-05 15:36 50.61101 7.30335 12201 ft 275 kts 139°
2026-05-05 15:36 50.59703 7.32350 11902 ft 270 kts 139°
2026-05-05 15:36 50.58347 7.34329 11645 ft 260 kts 139°
2026-05-05 15:36 50.57055 7.36206 11384 ft 253 kts 139°
2026-05-05 15:37 50.55747 7.38088 11142 ft 251 kts 139°
2026-05-05 15:37 50.54477 7.39906 10895 ft 249 kts 139°
2026-05-05 15:37 50.53198 7.41734 10523 ft 249 kts 140°
2026-05-05 15:37 50.51910 7.43573 10074 ft 251 kts 140°
2026-05-05 15:38 50.50731 7.45580 9641 ft 252 kts 120°
2026-05-05 15:38 50.50299 7.48224 9202 ft 254 kts 89°
2026-05-05 15:38 50.50753 7.50889 8770 ft 255 kts 62°
2026-05-05 15:38 50.51809 7.53119 8350 ft 255 kts 50°
2026-05-05 15:39 50.53002 7.55167 7931 ft 254 kts 47°
2026-05-05 15:39 50.54375 7.56878 7502 ft 254 kts 22°
2026-05-05 15:39 50.56096 7.57304 7088 ft 252 kts 352°
2026-05-05 15:39 50.57729 7.56408 6706 ft 249 kts 326°
2026-05-05 15:40 50.59075 7.54725 6306 ft 246 kts 316°
2026-05-05 15:40 50.60331 7.52908 5899 ft 245 kts 315°
2026-05-05 15:40 50.61560 7.51087 5586 ft 240 kts 316°
2026-05-05 15:40 50.62790 7.49368 5333 ft 233 kts 319°
2026-05-05 15:41 50.64008 7.47780 5203 ft 225 kts 319°
2026-05-05 15:41 50.65202 7.46132 5042 ft 233 kts 317°
2026-05-05 15:41 50.66420 7.44390 4816 ft 241 kts 316°
2026-05-05 15:41 50.67660 7.42589 4613 ft 244 kts 315°
2026-05-05 15:42 50.68826 7.40609 4379 ft 251 kts 307°
2026-05-05 15:42 50.69697 7.38165 4133 ft 256 kts 299°
2026-05-05 15:42 50.71019 7.36384 3745 ft 255 kts 351°
2026-05-05 15:42 50.72527 7.35864 4523 ft 233 kts 338°
2026-05-05 15:43 50.73968 7.34114 3839 ft 278 kts 310°
2026-05-05 15:43 50.75217 7.31743 3115 ft 285 kts 311°
2026-05-05 15:43 50.76550 7.29532 2876 ft 269 kts 317°
2026-05-05 15:43 50.77925 7.27552 2301 ft 267 kts 319°
2026-05-05 15:44 50.79244 7.25640 2185 ft 242 kts 320°
2026-05-05 15:44 50.80497 7.23891 1578 ft 238 kts 319°
2026-05-05 15:44 50.81638 7.22222 1400 ft 211 kts 319°
2026-05-05 15:44 50.82666 7.20714 1109 ft 191 kts 318°
2026-05-05 15:45 50.83602 7.19352 849 ft 174 kts 318°
2026-05-05 15:45 50.84448 7.18125 671 ft 154 kts 316°
2026-05-05 15:45 50.85191 7.17038 421 ft 138 kts 315°
2026-05-05 15:45 50.85865 7.16025 300 ft 125 kts 318°
2026-05-05 15:46 50.86362 7.15335 267 ft 64 kts 318°
2026-05-05 15:46 50.86569 7.15044 262 ft 31 kts 318°
2026-05-05 15:46 50.86728 7.14815 257 ft 31 kts 319°
2026-05-05 15:46 50.86853 7.14561 255 ft 29 kts 292°
2026-05-05 15:47 50.86880 7.14391 258 ft 11 kts 281°
2026-05-05 15:47 50.86889 7.14314 258 ft 11 kts 281°
2026-05-05 15:47 50.86909 7.14131 251 ft 15 kts 279°
2026-05-05 15:47 50.86926 7.13972 246 ft 16 kts 282°
2026-05-05 15:48 50.86979 7.13842 242 ft 7 kts 317°
2026-05-05 15:48 50.87014 7.13791 242 ft 7 kts 317°
2026-05-05 15:48 50.87050 7.13739 241 ft 7 kts 317°
2026-05-05 15:48 50.87090 7.13682 240 ft 8 kts 317°
2026-05-05 15:49 50.87110 7.13608 239 ft 8 kts 243°
2026-05-05 15:49 50.87074 7.13539 239 ft 8 kts 227°
2026-05-05 15:49 50.87060 7.13515 239 ft 1 kts 229°